Galeao, Brazil

2:26 PM BRT on February 19, 2017 (GMT -0300)
Galeao

Weather History for 83755 - April, 2014

Change the Weather History Date:

Friday, April 4, 2014

  Actual Average Record
Temperature  
Mean Temperature 78 °F -  
Max Temperature 82 °F 81 °F - ()
Min Temperature 73 °F 71 °F - ()
Cooling Degree Days 12    
Growing Degree Days 28 (Base 50)    
Moisture  
Dew Point 73 °F    
Average Humidity 84    
Maximum Humidity 94    
Minimum Humidity 70    
Precipitation  
Precipitation 0.00 in - - ()
Sea Level Pressure  
Sea Level Pressure 30.07 in    
Wind  
Wind Speed 7 mph ()    
Max Wind Speed 18 mph    
Max Gust Speed -    
Visibility 5.6 miles    
Events Rain    
T = Trace of Precipitation, MM = Missing Value Source: Averaged Metar Reports

Daily Weather History Graph

Daily Weather History Graph

Search for Another Location

Airport or City:

Trip Planner

Search our weather history database for the weather conditions in past years. The results will help you decide how hot, cold, wet, or windy it might be!

Date:

Astronomy

Apr. 04, 2014 Rise Set
Actual Time 6:01 AM BRT 5:49 PM BRT
Civil Twilight 5:39 AM BRT 6:11 PM BRT
Nautical Twilight 5:13 AM BRT 6:37 PM BRT
Astronomical Twilight 4:47 AM BRT 7:03 PM BRT
Moon 10:25 AM BRT (4/4) 9:40 PM BRT (4/4)
Length of Visible Light 12h 32m
Length of Day
11h 47m
Waxing Crescent, 25% of the Moon is Illuminated
Apr 4
Waxing Crescent
Apr 7
First Quarter
Apr 15
Full
Apr 22
Last Quarter
Apr 29
New

Hourly Weather History & Observations

Time (BRT) Temp. Heat Index Dew Point Humidity Pressure Visibility Wind Dir Wind Speed Gust Speed Precip Events Conditions
5:20 AM 75.2 °F - 71.6 °F 89% 30.01 in 3.1 mi East 6.9 mph - N/A Rain Light Rain
6:00 AM 73.4 °F - 71.6 °F 94% 30.01 in 3.1 mi NW 2.3 mph - N/A   Light Drizzle
7:00 AM 75.2 °F - 73.4 °F 94% 30.04 in 3.1 mi NNE 2.3 mph - N/A   Light Drizzle
8:00 AM 75.2 °F - 73.4 °F 94% 30.06 in 5.0 mi NNW 3.5 mph - N/A   Mostly Cloudy
9:00 AM 78.8 °F - 75.2 °F 89% 30.06 in 5.6 mi South 5.8 mph - N/A   Mostly Cloudy
10:00 AM 80.6 °F 85.4 °F 73.4 °F 79% 30.09 in 5.0 mi SE 11.5 mph - N/A   Mostly Cloudy
11:00 AM 82.4 °F 87.2 °F 71.6 °F 70% 30.09 in 6.2 mi South 10.4 mph - N/A   Mostly Cloudy
12:00 PM 82.4 °F 87.2 °F 71.6 °F 70% 30.06 in 6.2 mi South 18.4 mph - N/A   Mostly Cloudy
1:00 PM 82.4 °F 88.2 °F 73.4 °F 74% 30.06 in 6.2 mi South 11.5 mph - N/A   Mostly Cloudy
2:00 PM 78.8 °F - 73.4 °F 83% 30.04 in 6.2 mi South 15.0 mph - N/A   Mostly Cloudy
3:00 PM 80.6 °F 84.6 °F 71.6 °F 74% 30.04 in 6.2 mi South 13.8 mph - N/A   Scattered Clouds
4:00 PM 80.6 °F 84.6 °F 71.6 °F 74% 30.04 in 6.2 mi South 16.1 mph - N/A   Scattered Clouds
5:00 PM 78.8 °F - 73.4 °F 83% 30.06 in 6.2 mi South 10.4 mph - N/A   Scattered Clouds
6:00 PM 77.0 °F - 73.4 °F 89% 30.06 in 6.2 mi South 10.4 mph - N/A   Mostly Cloudy
7:00 PM 77.0 °F - 73.4 °F 89% 30.09 in 6.2 mi SSE 6.9 mph - N/A   Scattered Clouds
8:00 PM 77.0 °F - 73.4 °F 89% 30.12 in 6.2 mi South 5.8 mph - N/A   Partly Cloudy
9:00 PM 77.0 °F - 71.6 °F 83% 30.12 in 6.2 mi South 6.9 mph - N/A   Mostly Cloudy
10:00 PM 75.2 °F - 71.6 °F 89% 30.12 in 6.2 mi South 4.6 mph - N/A   Mostly Cloudy
11:00 PM 73.4 °F - 71.6 °F 94% 30.12 in 6.2 mi South 4.6 mph - N/A   Partly Cloudy